Terminal Aerodrome Forecast
Issued by NWS

Home | Current Version | Previous Version | Text Only | Print | Product List | Glossary On
Versions: 1 2 3 4 5 6 7 8 9 10 11 12 13 14 15 16 17 18 19 20 21 22 23 24 25 26 27 28
000
FTUS43 KDVN 210500
TAFCID
TAF
KCID 210537Z 2106/2206 16006KT 1/4SM -DZ FG OVC002
     FM211400 16011KT 3/4SM BR OVC004
     FM211600 17014KT 2SM BR OVC008
     FM211800 16015G22KT 5SM BR OVC015=

USA.gov is the U.S. government's official web portal to all federal, state and local government web resources and services.